DW8293 Weather Reports


Display with metric or nautical units.
time (UTC)temp
F
wind
direction
speed
MPH
gust
MPH
rain 1hr
in
rain 24hr
in
rain mn
in
humidity
%
barometer
mb
20260508102705 58 196 11.0 16.0 0.00 0.00 0.00 33 1020.8
20260508101803 59 168 6.0 15.0 0.00 0.00 0.00 32 1020.9
20260508100903 59 186 6.0 14.0 0.00 0.00 0.00 31 1020.8
20260508100003 58 174 4.0 17.0 0.00 0.00 0.00 32 1021.0
20260508095405 59 166 10.0 17.0 0.00 0.00 0.00 30 1020.9
20260508094505 59 160 6.0 17.0 0.00 0.00 0.00 30 1021.3
20260508093605 58 154 11.0 17.0 0.00 0.00 0.00 29 1021.0
20260508092703 59 150 6.0 15.0 0.00 0.00 0.00 30 1021.0
20260508091805 57 187 9.0 15.0 0.00 0.00 0.00 29 1021.1
20260508090926 58 132 4.0 16.0 0.00 0.00 0.00 30 1021.5
20260508090025 58 136 6.0 11.0 0.00 0.00 0.00 31 1021.1
20260508085403 57 139 6.0 11.0 0.00 0.00 0.00 31 1021.1
20260508084504 57 118 3.0 13.0 0.00 0.00 0.00 32 1021.3
20260508083603 56 137 2.0 11.0 0.00 0.00 0.00 32 1021.7
20260508082703 55 127 8.0 11.0 0.00 0.00 0.00 30 1021.5
20260508081805 55 133 4.0 11.0 0.00 0.00 0.00 31 1021.4
20260508080924 54 137 5.0 13.0 0.00 0.00 0.00 31 1021.1
20260508080005 55 141 4.0 11.0 0.00 0.00 0.00 32 1021.4
20260508075403 54 133 5.0 11.0 0.00 0.00 0.00 31 1021.1
20260508074505 53 139 4.0 14.0 0.00 0.00 0.00 30 1021.0
20260508073603 53 141 9.0 14.0 0.00 0.00 0.00 29 1021.0
20260508072724 53 144 4.0 11.0 0.00 0.00 0.00 32 1021.5
20260508071803 53 133 3.0 11.0 0.00 0.00 0.00 39 1021.1
20260508070903 52 120 6.0 9.0 0.00 0.00 0.00 41 1020.8
20260508070003 51 128 2.0 7.0 0.00 0.00 0.00 41 1020.8
20260508065403 51 133 3.0 8.0 0.00 0.00 0.00 41 1020.8
20260508064524 49 141 4.0 8.0 0.00 0.00 0.00 44 1020.8
20260508063603 49 125 4.0 9.0 0.00 0.00 0.00 45 1020.8
20260508062703 48 127 6.0 9.0 0.00 0.00 0.00 49 1020.7
20260508061803 47 124 2.0 4.0 0.00 0.00 0.00 51 1020.6
20260508060903 46 112 2.0 6.0 0.00 0.00 0.00 52 1020.6
20260508060003 45 102 4.0 7.0 0.00 0.00 0.00 54 1020.6
20260508055403 44 107 4.0 7.0 0.00 0.00 0.00 55 1020.5
20260508054505 43 127 2.0 4.0 0.00 0.00 0.00 59 1020.7
20260508053605 43 103 2.0 6.0 0.00 0.00 0.00 59 1020.5
20260508052703 42 92 2.0 6.0 0.00 0.00 0.00 63 1020.5
20260508051805 41 104 2.0 4.0 0.00 0.00 0.00 63 1020.4
20260508050903 41 98 2.0 4.0 0.00 0.00 0.00 63 1020.2
20260508050003 41 90 2.0 2.0 0.00 0.00 0.00 68 1020.2
20260508045403 41 90 0.0 2.0 0.00 0.00 0.00 72 1020.4
20260508044526 40 92 1.0 2.0 0.00 0.00 0.00 72 1020.1
20260508043603 39 102 1.0 2.0 0.00 0.00 0.00 72 1020.2
20260508042703 39 0 0.0 0.0 0.00 0.00 0.00 72 1019.8
20260508041805 38 0 0.0 0.0 0.00 0.00 0.00 78 1019.9
20260508040903 37 0 0.0 0.0 0.00 0.00 0.00 77 1019.6
20260508040003 35 0 0.0 0.0 0.00 0.00 0.00 82 1019.8
20260508035424 36 0 0.0 0.0 0.00 0.00 0.00 82 1019.8
20260508034503 35 0 0.0 0.0 0.00 0.00 0.00 80 1019.6
20260508033603 34 0 0.0 0.0 0.00 0.00 0.00 82 1019.7
20260508032703 33 0 0.0 0.0 0.00 0.00 0.00 89 1019.9
20260508031803 31 0 0.0 0.0 0.00 0.00 0.00 89 1019.7
20260508030905 31 0 0.0 0.0 0.00 0.00 0.00 89 1019.6
20260508030003 31 0 0.0 0.0 0.00 0.00 0.00 90 1019.6
20260508025403 32 0 0.0 0.0 0.00 0.00 0.00 91 1019.5
20260508024503 31 0 0.0 0.0 0.00 0.00 0.00 90 1019.5
20260508023626 31 0 0.0 0.0 0.00 0.00 0.00 89 1019.3
20260508022704 32 0 0.0 0.0 0.00 0.00 0.00 89 1019.3
20260508021803 31 0 0.0 0.0 0.00 0.00 0.00 87 1019.1
20260508020905 31 0 0.0 0.0 0.00 0.00 0.00 85 1019.1
20260508020003 33 0 0.0 0.0 0.00 0.00 0.00 83 1018.9
20260508015403 34 0 0.0 0.0 0.00 0.00 0.00 81 1019.0
20260508014503 33 0 0.0 0.0 0.00 0.00 0.00 82 1019.1
20260508013603 34 0 0.0 0.0 0.00 0.00 0.00 81 1018.6
20260508012703 35 0 0.0 0.0 0.00 0.00 0.00 80 1018.7
20260508011805 36 0 0.0 0.0 0.00 0.00 0.00 80 1018.6
20260508010905 35 0 0.0 0.0 0.00 0.00 0.00 79 1018.3
20260508010003 35 0 0.0 0.0 0.00 0.00 0.00 80 1018.4
20260508005403 35 0 0.0 0.0 0.00 0.00 0.00 81 1018.5
20260508004503 34 0 0.0 0.0 0.00 0.00 0.00 80 1018.3
20260508003603 35 0 0.0 0.0 0.00 0.00 0.00 78 1018.3
20260508002705 36 0 0.0 0.0 0.00 0.00 0.00 77 1018.1
20260508001803 37 0 0.0 0.0 0.00 0.00 0.00 76 1018.0
20260508000924 37 0 0.0 0.0 0.00 0.00 0.00 74 1018.0
20260508000026 37 0 0.0 0.0 0.00 0.00 0.00 71 1017.8
20260507235403 37 0 0.0 0.0 0.00 0.00 0.00 69 1017.9
20260507234503 36 0 0.0 0.0 0.00 0.00 0.00 69 1017.9
20260507233605 38 0 0.0 0.0 0.00 0.00 0.00 67 1017.8
20260507232703 38 0 0.0 0.0 0.00 0.00 0.00 66 1017.5
20260507231803 39 0 0.0 0.0 0.00 0.00 0.00 66 1017.8
20260507230907 38 0 0.0 0.0 0.00 0.00 0.00 66 1017.6
20260507230003 39 0 0.0 0.0 0.00 0.00 0.00 64 1017.4
20260507225403 39 0 0.0 0.0 0.00 0.00 0.00 65 1017.4
20260507224505 38 0 0.0 0.0 0.00 0.00 0.00 65 1017.2
20260507223605 40 0 0.0 0.0 0.00 0.00 0.00 62 1017.1
20260507222703 40 0 0.0 0.0 0.00 0.00 0.00 63 1017.2
20260507221804 41 0 0.0 0.0 0.00 0.00 0.00 60 1016.9
20260507220903 42 112 0.0 2.0 0.00 0.00 0.00 58 1016.9
20260507220003 43 112 1.0 4.0 0.00 0.00 0.00 55 1017.1
20260507215403 44 112 2.0 2.0 0.00 0.00 0.00 54 1016.8
20260507214503 44 112 1.0 2.0 0.00 0.00 0.00 53 1016.9
20260507213603 45 109 2.0 4.0 0.00 0.00 0.00 51 1016.6
20260507212703 46 112 2.0 4.0 0.00 0.00 0.00 50 1016.7
20260507211805 46 112 2.0 4.0 0.00 0.00 0.00 51 1016.5
20260507210924 46 110 2.0 4.0 0.00 0.00 0.00 51 1016.5
20260507210003 46 111 1.0 4.0 0.00 0.00 0.00 51 1016.3
20260507205403 46 110 2.0 6.0 0.00 0.00 0.00 51 1016.1
20260507204503 47 105 2.0 6.0 0.00 0.00 0.00 51 1015.9
20260507203603 47 90 1.0 4.0 0.00 0.00 0.00 51 1015.9
20260507202703 46 67 1.0 2.0 0.00 0.00 0.00 55 1015.9
20260507201803 46 53 0.0 2.0 0.00 0.00 0.00 54 1015.9
20260507200903 46 45 0.0 2.0 0.00 0.00 0.00 53 1015.5
20260507200004 47 45 0.0 2.0 0.00 0.00 0.00 51 1015.5
20260507195424 47 45 0.0 2.0 0.00 0.00 0.00 50 1015.3
20260507194524 46 0 0.0 0.0 0.00 0.00 0.00 49 1015.2
20260507193603 47 45 0.0 2.0 0.00 0.00 0.00 46 1015.0
20260507192703 48 0 0.0 0.0 0.00 0.00 0.00 42 1015.0
20260507191803 49 0 0.0 0.0 0.00 0.00 0.00 43 1014.7
20260507190903 50 45 0.0 2.0 0.00 0.00 0.00 40 1014.7
20260507190024 51 45 1.0 2.0 0.00 0.00 0.00 37 1014.5
20260507185424 52 40 0.0 4.0 0.00 0.00 0.00 36 1014.6
20260507184505 54 22 1.0 2.0 0.00 0.00 0.00 28 1014.2
20260507183605 55 22 0.0 2.0 0.00 0.00 0.00 27 1014.3
20260507182703 56 22 0.0 2.0 0.00 0.00 0.00 26 1014.1
20260507181803 57 22 1.0 2.0 0.00 0.00 0.00 23 1014.1
20260507180903 57 21 1.0 4.0 0.00 0.00 0.00 23 1013.9
20260507180003 58 21 2.0 4.0 0.00 0.00 0.00 23 1013.9
20260507175403 58 20 2.0 4.0 0.00 0.00 0.00 24 1013.6
20260507174503 59 20 2.0 4.0 0.00 0.00 0.00 22 1013.6
20260507173624 59 358 2.0 4.0 0.00 0.00 0.00 22 1013.7
20260507172703 59 350 2.0 7.0 0.00 0.00 0.00 23 1013.6
20260507171803 59 342 2.0 7.0 0.00 0.00 0.00 22 1013.3
20260507170906 59 329 2.0 7.0 0.00 0.00 0.00 23 1013.2
20260507170003 59 316 2.0 7.0 0.00 0.00 0.00 24 1013.3
20260507165403 60 315 2.0 7.0 0.00 0.00 0.00 23 1013.1
20260507164503 60 316 3.0 6.0 0.00 0.00 0.00 23 1013.0
20260507163603 60 345 2.0 4.0 0.00 0.00 0.00 23 1013.0
20260507162703 60 342 2.0 4.0 0.00 0.00 0.00 22 1013.1
20260507161803 60 324 1.0 4.0 0.00 0.00 0.00 23 1012.9
20260507160903 62 342 2.0 4.0 0.00 0.00 0.00 22 1012.9
20260507160003 62 343 1.0 4.0 0.00 0.00 0.00 21 1012.6
20260507155403 61 330 0.0 4.0 0.00 0.00 0.00 22 1012.9
20260507154504 60 321 2.0 6.0 0.00 0.00 0.00 24 1012.9
20260507153603 61 294 2.0 7.0 0.00 0.00 0.00 22 1012.9
20260507152724 59 316 2.0 9.0 0.00 0.00 0.00 24 1012.7
20260507151803 60 326 7.0 11.0 0.00 0.00 0.00 24 1012.6
20260507150926 60 338 5.0 9.0 0.00 0.00 0.00 24 1012.5
20260507150004 61 337 4.0 6.0 0.00 0.00 0.00 25 1012.4
20260507145405 62 358 2.0 7.0 0.00 0.00 0.00 24 1012.4
20260507144503 61 349 4.0 6.0 0.00 0.00 0.00 24 1012.5
20260507143603 61 31 2.0 7.0 0.00 0.00 0.00 25 1012.4
20260507142704 60 13 4.0 7.0 0.00 0.00 0.00 24 1012.2
20260507141803 62 348 2.0 4.0 0.00 0.00 0.00 25 1012.3
20260507140903 60 353 2.0 4.0 0.00 0.00 0.00 25 1012.3
20260507140025 58 348 0.0 4.0 0.00 0.00 0.00 25 1012.3
20260507135403 58 6 2.0 4.0 0.00 0.00 0.00 26 1012.2
20260507134505 57 327 2.0 7.0 0.00 0.00 0.00 27 1012.3
20260507133603 56 303 4.0 9.0 0.00 0.00 0.00 28 1012.1
20260507132705 58 283 2.0 9.0 0.00 0.00 0.00 29 1012.2
20260507131803 58 302 2.0 8.0 0.00 0.00 0.00 26 1012.1
20260507130903 60 330 3.0 8.0 0.00 0.00 0.00 26 1012.1
20260507130005 62 70 2.0 7.0 0.00 0.00 0.00 25 1012.0
20260507125403 58 51 4.0 7.0 0.00 0.00 0.00 27 1012.3
20260507124503 60 19 3.0 7.0 0.00 0.00 0.00 27 1011.9
20260507123603 58 338 2.0 7.0 0.00 0.00 0.00 26 1012.0
20260507122705 57 345 3.0 7.0 0.00 0.00 0.00 30 1012.0
20260507121803 57 15 2.0 9.0 0.00 0.00 0.00 28 1012.0
20260507120903 60 329 2.0 7.0 0.00 0.00 0.00 25 1011.9
20260507120005 60 321 4.0 11.0 0.00 0.00 0.00 27 1011.9
20260507115403 60 321 4.0 9.0 0.00 0.00 0.00 26 1011.7
20260507114503 58 343 4.0 7.0 0.00 0.00 0.00 26 1011.9
20260507113605 56 293 3.0 9.0 0.00 0.00 0.00 27 1012.0
20260507112703 59 124 1.0 4.0 0.00 0.00 0.00 27 1011.7
20260507111805 56 347 1.0 9.0 0.00 0.00 0.00 27 1011.8
20260507110903 55 354 2.0 9.0 0.00 0.00 0.00 28 1011.8
20260507110005 58 335 3.0 8.0 0.00 0.00 0.00 26 1011.7
20260507105403 57 356 4.0 8.0 0.00 0.00 0.00 26 1011.6
20260507104504 58 302 2.0 4.0 0.00 0.00 0.00 28 1011.6
20260507103603 57 281 1.0 4.0 0.00 0.00 0.00 29 1011.6